Darstellungsparameter: Aktuell verwendete Einstellungen:
Skalierung der Graphiken ... ?
xyx+y,   Skalierungsfaktor:      Skalierung: Modus: x, Faktor: 1
Darstellungszeitraum ... ?
Vom - - bis: - -   Zeitraum: 03.09.2019 - 02.09.2020
Min/Max/Avg-Anzeige ... ?
Zeige MMA aktuell
Zeige MMA Monat
Zeige MMA alles
Zeige --A aktuell
Zeige --A Monat
Zeige --A alles
Keine MMA-Anzeige
MMA:
Keine MMA-Graphiken
MMA-Basis: 03.09.2019 - 02.09.2020
Quicknavigation für Darstellung... ?
Tage:      1T, 2T, 3T, 5T -1T -2T -3T -5T +1T +2T +3T +5T
Wochen: 1W, 2W, 3W -1W -2W -3W +1W +2W +3W
Monate: 1M, 3M, 6M -1M -3M -6M +1M +3M +6M
Jahre:    1J, 3J, 5J, 10J -1J -3J -5J -10J +1J +3J +5J +10J
Nutze für die Darstellung ... ?
Originaldaten oder ...
Mittelwerte Minima Maxima auf...
Stundenbasis Tagesbasis Wochenbasis
Monatsbasis Jahresbasis      Datenbasis: Mittelwerte auf Tagesbasis
Darstellen als:
Statistik (Auto) Statistik J:M      Darstellung:
Zur Graphik,    zurück zur Übersicht aller Sensoren.
 
Tabellarische Datenbersicht: ?
 
Sensor: Nr:Datum:Temp:Feuchte:
Aussen-T/F 1 03-09-2019 00:00:00 15.72917 C 28.0833 %
2 04-09-2019 00:00:00 16.9525 C 33.9667 %
3 05-09-2019 00:00:00 15.59 C 26.2917 %
4 06-09-2019 00:00:00 13.58917 C 31.1917 %
5 07-09-2019 00:00:00 12.6975 C 39.5000 %
6 08-09-2019 00:00:00 12.7439 C 48.5935 %
7 09-09-2019 00:00:00 15.23733 C 38.6667 %
8 10-09-2019 00:00:00 12.20486 C 22.8264 %
9 11-09-2019 00:00:00 13.35556 C 20.8472 %
10 12-09-2019 00:00:00 19.325 C 20.0000 %
11 13-09-2019 00:00:00 17.86806 C 20.1111 %
12 14-09-2019 00:00:00 15.93333 C 22.4375 %
13 15-09-2019 00:00:00 15.65694 C 21.2778 %
14 16-09-2019 00:00:00 16.21389 C 20.0000 %
15 17-09-2019 00:00:00 15.87708 C 20.0000 %
16 18-09-2019 00:00:00 11.47361 C 20.7917 %
17 19-09-2019 00:00:00 10.53333 C 21.8194 %
18 20-09-2019 00:00:00 10.80486 C 20.8472 %
19 21-09-2019 00:00:00 12.45278 C 20.6597 %
20 22-09-2019 00:00:00 14.78542 C 20.7500 %
21 23-09-2019 00:00:00 16.6875 C 22.1528 %
22 24-09-2019 00:00:00 13.94306 C 26.6319 %
23 25-09-2019 00:00:00 15.31806 C 25.0417 %
24 26-09-2019 00:00:00 16.10903 C 26.0000 %
25 27-09-2019 00:00:00 16.23333 C 23.7708 %
Sensor: Nr:Datum:Temp:Feuchte:
Aussen-T/F 26 28-09-2019 00:00:00 15.40208 C 22.5833 %
27 29-09-2019 00:00:00 16.05972 C 21.6597 %
28 30-09-2019 00:00:00 15.48194 C 21.1319 %
29 01-10-2019 00:00:00 15.84375 C 23.4931 %
30 02-10-2019 00:00:00 12.57569 C 23.6111 %
31 03-10-2019 00:00:00 9.35625 C 27.6944 %
32 04-10-2019 00:00:00 10.03681 C 31.8403 %
33 05-10-2019 00:00:00 10.32986 C 26.5903 %
34 06-10-2019 00:00:00 7.85764 C 34.1250 %
35 07-10-2019 00:00:00 9.80764 C 31.8819 %
36 08-10-2019 00:00:00 12.35833 C 31.0694 %
37 09-10-2019 00:00:00 11.56667 C 27.7431 %
38 10-10-2019 00:00:00 11.49097 C 26.2153 %
39 11-10-2019 00:00:00 12.41458 C 28.8194 %
40 12-10-2019 00:00:00 13.21111 C 29.6875 %
41 13-10-2019 00:00:00 16.35417 C 28.4722 %
42 14-10-2019 00:00:00 15.8125 C 27.6528 %
43 15-10-2019 00:00:00 13.94028 C 29.8611 %
44 16-10-2019 00:00:00 12.42153 C 29.2917 %
45 17-10-2019 00:00:00 14.32708 C 27.4167 %
46 18-10-2019 00:00:00 12.3125 C 29.7292 %
47 19-10-2019 00:00:00 12.78194 C 28.2083 %
48 20-10-2019 00:00:00 13.0875 C 34.7778 %
49 21-10-2019 00:00:00 13.30486 C 29.2014 %
50 22-10-2019 00:00:00 11.45 C 27.8819 %
Sensor: Nr:Datum:Temp:Feuchte:
Aussen-T/F 51 23-10-2019 00:00:00 10.68403 C 31.1181 %
52 24-10-2019 00:00:00 13.85208 C 27.9236 %
53 25-10-2019 00:00:00 13.1625 C 24.9444 %
54 26-10-2019 00:00:00 12.72639 C 27.5417 %
55 27-10-2019 00:00:00 9.68467 C 30.8733 %
56 28-10-2019 00:00:00 5.91597 C 35.2014 %
57 29-10-2019 00:00:00 6.21181 C 29.3264 %
58 30-10-2019 00:00:00 2.93333 C 34.5347 %
59 31-10-2019 00:00:00 1.41875 C 34.8333 %
60 01-11-2019 00:00:00 5.44792 C 36.7292 %
61 02-11-2019 00:00:00 12.8125 C 27.6458 %
62 03-11-2019 00:00:00 11.45069 C 29.7639 %
63 04-11-2019 00:00:00 9.88542 C 30.2153 %
64 05-11-2019 00:00:00 9.25069 C 27.4306 %
65 06-11-2019 00:00:00 8.33542 C 34.7014 %
66 07-11-2019 00:00:00 7.30278 C 33.8333 %
67 08-11-2019 00:00:00 4.29028 C 37.7153 %
68 09-11-2019 00:00:00 4.26806 C 33.1111 %
69 10-11-2019 00:00:00 2.51319 C 34.9861 %
70 11-11-2019 00:00:00 4.2 C 27.4792 %
71 12-11-2019 00:00:00 5.41667 C 25.4792 %
72 13-11-2019 00:00:00 4.93472 C 22.9861 %
73 14-11-2019 00:00:00 4.86042 C 26.9861 %
74 15-11-2019 00:00:00 4.08472 C 26.3333 %
75 16-11-2019 00:00:00 1.19444 C 38.8125 %
Sensor: Nr:Datum:Temp:Feuchte:
Aussen-T/F 76 17-11-2019 00:00:00 2.39861 C 40.2708 %
77 18-11-2019 00:00:00 3.51667 C 36.2847 %
78 19-11-2019 00:00:00 3.06736 C 36.5833 %
79 20-11-2019 00:00:00 0.75972 C 37.8403 %
80 21-11-2019 00:00:00 1.18951 C 39.3846 %
81 22-11-2019 00:00:00 3.65972 C 35.6806 %
82 23-11-2019 00:00:00 4.64653 C 33.3889 %
83 24-11-2019 00:00:00 1.99861 C 41.4722 %
84 25-11-2019 00:00:00 4.16319 C 39.3681 %
85 26-11-2019 00:00:00 7.75903 C 34.8472 %
86 27-11-2019 00:00:00 9.72083 C 30.6875 %
87 28-11-2019 00:00:00 10.55833 C 22.1319 %
88 29-11-2019 00:00:00 5.75486 C 30.7639 %
89 30-11-2019 00:00:00 0.48194 C 42.0972 %
90 01-12-2019 00:00:00 1.14236 C 33.0139 %
91 02-12-2019 00:00:00 1.20556 C 36.2986 %
92 03-12-2019 00:00:00 3.97431 C 39.2292 %
93 04-12-2019 00:00:00 0.41389 C 41.6111 %
94 05-12-2019 00:00:00 -2.03194 C 42.0972 %
95 06-12-2019 00:00:00 2.6125 C 34.4722 %
96 07-12-2019 00:00:00 8.20694 C 27.7292 %
97 08-12-2019 00:00:00 9.69931 C 24.2778 %
98 09-12-2019 00:00:00 7.09444 C 23.9722 %
99 10-12-2019 00:00:00 2.37361 C 34.0000 %
100 11-12-2019 00:00:00 3.12569 C 39.3056 %
Sensor: Nr:Datum:Temp:Feuchte:
Aussen-T/F 101 12-12-2019 00:00:00 2.64931 C 37.2500 %
102 13-12-2019 00:00:00 3.25278 C 34.0069 %
103 14-12-2019 00:00:00 6.22222 C 28.0625 %
104 15-12-2019 00:00:00 7.24792 C 30.8958 %
105 16-12-2019 00:00:00 7.47361 C 39.2986 %
106 17-12-2019 00:00:00 9.69514 C 31.9653 %
107 18-12-2019 00:00:00 6.95069 C 37.4792 %
108 19-12-2019 00:00:00 4.60972 C 40.5417 %
109 20-12-2019 00:00:00 6.87778 C 35.7847 %
110 21-12-2019 00:00:00 6.42778 C 32.4306 %
111 22-12-2019 00:00:00 7.57917 C 31.0556 %
112 23-12-2019 00:00:00 7.34861 C 28.6111 %
113 24-12-2019 00:00:00 7.20278 C 29.9097 %
114 25-12-2019 00:00:00 6.91944 C 32.8333 %
115 26-12-2019 00:00:00 4.25278 C 40.6250 %
116 27-12-2019 00:00:00 4.41181 C 36.8819 %
117 28-12-2019 00:00:00 -1.22431 C 42.5000 %
118 29-12-2019 00:00:00 -2.07708 C 39.8819 %
119 30-12-2019 00:00:00 -1.99931 C 39.1319 %
120 31-12-2019 00:00:00 -0.41736 C 39.5556 %
121 01-01-2020 00:00:00 -0.10764 C 41.3403 %
122 02-01-2020 00:00:00 0.98958 C 39.7014 %
123 03-01-2020 00:00:00 7.00972 C 33.4653 %
124 04-01-2020 00:00:00 4.78264 C 32.5903 %
125 05-01-2020 00:00:00 5.21806 C 35.8750 %
Sensor: Nr:Datum:Temp:Feuchte:
Aussen-T/F 126 06-01-2020 00:00:00 2.11667 C 38.1667 %
127 07-01-2020 00:00:00 4.43611 C 34.6944 %
128 08-01-2020 00:00:00 7.71389 C 34.4167 %
129 09-01-2020 00:00:00 10.33542 C 35.2292 %
130 10-01-2020 00:00:00 8.27917 C 30.8958 %
131 11-01-2020 00:00:00 3.61806 C 33.7639 %
132 12-01-2020 00:00:00 4.57083 C 30.3889 %
133 13-01-2020 00:00:00 5.88472 C 35.0903 %
134 14-01-2020 00:00:00 9.28264 C 24.1181 %
135 15-01-2020 00:00:00 10.27083 C 23.7500 %
136 16-01-2020 00:00:00 7.07569 C 40.1944 %
137 17-01-2020 00:00:00 5.27986 C 39.1944 %
138 18-01-2020 00:00:00 3.79028 C 32.6042 %
139 19-01-2020 00:00:00 3.01389 C 40.8194 %
140 20-01-2020 00:00:00 1.64861 C 39.3889 %
141 21-01-2020 00:00:00 -2.675 C 44.7986 %
142 22-01-2020 00:00:00 -1.95347 C 44.7153 %
143 23-01-2020 00:00:00 0.53819 C 43.6458 %
144 24-01-2020 00:00:00 0.81319 C 35.7222 %
145 25-01-2020 00:00:00 1.99236 C 39.2014 %
146 26-01-2020 00:00:00 2.13056 C 41.5625 %
147 27-01-2020 00:00:00 5.48542 C 39.8264 %
148 28-01-2020 00:00:00 5.07708 C 30.3750 %
149 29-01-2020 00:00:00 4.20764 C 29.8611 %
150 30-01-2020 00:00:00 7.57569 C 29.5694 %
Sensor: Nr:Datum:Temp:Feuchte:
Aussen-T/F 151 31-01-2020 00:00:00 12.86181 C 27.9167 %
152 01-02-2020 00:00:00 11.16597 C 32.0972 %
153 02-02-2020 00:00:00 9.925 C 31.1319 %
154 03-02-2020 00:00:00 10.19236 C 29.5139 %
155 04-02-2020 00:00:00 4.29514 C 36.4097 %
156 05-02-2020 00:00:00 3.05069 C 37.1458 %
157 06-02-2020 00:00:00 0.04514 C 42.7500 %
158 07-02-2020 00:00:00 -0.30764 C 42.8264 %
159 08-02-2020 00:00:00 1.01389 C 43.0069 %
160 09-02-2020 00:00:00 8.36458 C 32.5764 %
161 10-02-2020 00:00:00 7.85 C 31.3611 %
162 11-02-2020 00:00:00 5.29167 C 24.6597 %
163 12-02-2020 00:00:00 4.32083 C 30.5972 %
164 13-02-2020 00:00:00 3.32917 C 42.1250 %
165 14-02-2020 00:00:00 5.46458 C 39.2639 %
166 15-02-2020 00:00:00 5.89931 C 38.0278 %
167 16-02-2020 00:00:00 14.44931 C 23.2431 %
168 17-02-2020 00:00:00 8.25903 C 32.4167 %
169 18-02-2020 00:00:00 6.89097 C 31.0347 %
170 19-02-2020 00:00:00 5.73889 C 30.1875 %
171 20-02-2020 00:00:00 7.7125 C 32.9722 %
172 21-02-2020 00:00:00 4.71042 C 33.5972 %
173 22-02-2020 00:00:00 7.67986 C 30.0347 %
174 23-02-2020 00:00:00 10.01389 C 35.3403 %
175 24-02-2020 00:00:00 7.74653 C 36.3194 %
Sensor: Nr:Datum:Temp:Feuchte:
Aussen-T/F 176 25-02-2020 00:00:00 8.81597 C 32.2778 %
177 26-02-2020 00:00:00 4.37431 C 33.6806 %
178 27-02-2020 00:00:00 2.22153 C 41.6806 %
179 28-02-2020 00:00:00 3.52431 C 38.4514 %
180 29-02-2020 00:00:00 8.60556 C 34.8889 %
181 01-03-2020 00:00:00 7.15694 C 36.0000 %
182 02-03-2020 00:00:00 5.99375 C 40.1667 %
183 03-03-2020 00:00:00 4.26806 C 39.6458 %
184 04-03-2020 00:00:00 5.28958 C 37.5764 %
185 05-03-2020 00:00:00 5.45764 C 43.0833 %
186 06-03-2020 00:00:00 5.63958 C 40.4931 %
187 07-03-2020 00:00:00 6.26458 C 33.7569 %
188 08-03-2020 00:00:00 9.46458 C 32.2361 %
189 09-03-2020 00:00:00 7.81875 C 35.4514 %
190 10-03-2020 00:00:00 9.06181 C 39.4514 %
191 11-03-2020 00:00:00 14.0375 C 35.2639 %
192 12-03-2020 00:00:00 11.01597 C 30.3681 %
193 13-03-2020 00:00:00 6.99236 C 33.4236 %
194 14-03-2020 00:00:00 5.89028 C 38.1667 %
195 15-03-2020 00:00:00 9.14653 C 32.2153 %
196 16-03-2020 00:00:00 9.43264 C 35.6667 %
197 17-03-2020 00:00:00 12.02708 C 33.7847 %
198 18-03-2020 00:00:00 9.92639 C 36.2153 %
199 19-03-2020 00:00:00 12.58194 C 32.0417 %
200 20-03-2020 00:00:00 10.52657 C 36.2308 %
Sensor: Nr:Datum:Temp:Feuchte:
Aussen-T/F 201 21-03-2020 00:00:00 5.89653 C 34.6597 %
202 22-03-2020 00:00:00 4.30139 C 28.5278 %
203 23-03-2020 00:00:00 3.12292 C 27.0764 %
204 24-03-2020 00:00:00 2.82431 C 27.8403 %
205 25-03-2020 00:00:00 3.67014 C 25.0486 %
206 26-03-2020 00:00:00 5.25486 C 23.4931 %
207 27-03-2020 00:00:00 8.10139 C 29.8819 %
208 28-03-2020 00:00:00 9.69236 C 30.9306 %
209 29-03-2020 00:00:00 5.0942 C 30.1377 %
210 30-03-2020 00:00:00 2.89028 C 29.9167 %
211 31-03-2020 00:00:00 5.79792 C 30.1528 %
212 01-04-2020 00:00:00 4.16111 C 29.6944 %
213 02-04-2020 00:00:00 5.26806 C 31.1944 %
214 03-04-2020 00:00:00 7.93542 C 28.5069 %
215 04-04-2020 00:00:00 6.89375 C 31.8958 %
216 05-04-2020 00:00:00 9.74514 C 32.0625 %
217 06-04-2020 00:00:00 12.17708 C 29.7431 %
218 07-04-2020 00:00:00 14.2875 C 28.9028 %
219 08-04-2020 00:00:00 15.02153 C 31.1528 %
220 09-04-2020 00:00:00 15.89514 C 27.6458 %
221 10-04-2020 00:00:00 14.80972 C 29.8333 %
222 11-04-2020 00:00:00 14.775 C 25.4861 %
223 12-04-2020 00:00:00 15.71319 C 27.3056 %
224 13-04-2020 00:00:00 9.43542 C 29.6944 %
225 14-04-2020 00:00:00 6.54583 C 28.1042 %
Sensor: Nr:Datum:Temp:Feuchte:
Aussen-T/F 226 15-04-2020 00:00:00 9.17222 C 30.8750 %
227 16-04-2020 00:00:00 13.09792 C 29.6667 %
228 17-04-2020 00:00:00 15.68056 C 30.2500 %
229 18-04-2020 00:00:00 14.81597 C 32.5000 %
230 19-04-2020 00:00:00 13.35694 C 32.8889 %
231 20-04-2020 00:00:00 12.80069 C 22.9861 %
232 21-04-2020 00:00:00 13.68472 C 21.3889 %
233 22-04-2020 00:00:00 14.69375 C 23.2153 %
234 23-04-2020 00:00:00 14.90347 C 25.2917 %
235 24-04-2020 00:00:00 14.72361 C 27.0278 %
236 25-04-2020 00:00:00 13.03611 C 25.6597 %
237 26-04-2020 00:00:00 12.22917 C 31.0069 %
238 27-04-2020 00:00:00 13.17153 C 29.7431 %
239 28-04-2020 00:00:00 12.62153 C 36.5556 %
240 29-04-2020 00:00:00 14.57569 C 31.0903 %
241 30-04-2020 00:00:00 12.09722 C 36.4583 %
242 01-05-2020 00:00:00 10.66042 C 37.3542 %
243 02-05-2020 00:00:00 10.00764 C 36.3611 %
244 03-05-2020 00:00:00 10.75833 C 34.4653 %
245 04-05-2020 00:00:00 11.74722 C 36.3681 %
246 05-05-2020 00:00:00 11.26667 C 32.2083 %
247 06-05-2020 00:00:00 11.08403 C 30.6181 %
248 07-05-2020 00:00:00 13.50764 C 30.8056 %
249 08-05-2020 00:00:00 15.85208 C 29.3056 %
250 09-05-2020 00:00:00 16.28611 C 29.0139 %
Sensor: Nr:Datum:Temp:Feuchte:
Aussen-T/F 251 10-05-2020 00:00:00 15.97153 C 36.6389 %
252 11-05-2020 00:00:00 9.26875 C 32.4028 %
253 12-05-2020 00:00:00 8.55764 C 29.8264 %
254 13-05-2020 00:00:00 9.41528 C 30.4444 %
255 14-05-2020 00:00:00 9.74792 C 29.2917 %
256 15-05-2020 00:00:00 11.27986 C 28.5903 %
257 16-05-2020 00:00:00 11.95833 C 29.2986 %
258 17-05-2020 00:00:00 14.25556 C 28.0625 %
259 18-05-2020 00:00:00 16.81042 C 28.8681 %
260 19-05-2020 00:00:00 17.67986 C 29.2153 %
261 20-05-2020 00:00:00 18.90417 C 29.3611 %
262 21-05-2020 00:00:00 20.425 C 29.2361 %
263 22-05-2020 00:00:00 20.27222 C 29.9583 %
264 23-05-2020 00:00:00 13.65972 C 37.1111 %
265 24-05-2020 00:00:00 13.68056 C 31.3750 %
266 25-05-2020 00:00:00 16.41181 C 30.5625 %
267 26-05-2020 00:00:00 15.69306 C 31.7292 %
268 27-05-2020 00:00:00 18.09444 C 29.6597 %
269 28-05-2020 00:00:00 18.81736 C 24.7153 %
270 29-05-2020 00:00:00 16.43681 C 26.8056 %
271 30-05-2020 00:00:00 16.61667 C 24.5000 %
272 31-05-2020 00:00:00 16.21736 C 26.2153 %
273 01-06-2020 00:00:00 19.27153 C 26.8889 %
274 02-06-2020 00:00:00 21.30486 C 25.6250 %
275 03-06-2020 00:00:00 21.06597 C 25.1042 %
Sensor: Nr:Datum:Temp:Feuchte:
Aussen-T/F 276 04-06-2020 00:00:00 14.39583 C 39.8403 %
277 05-06-2020 00:00:00 11.4625 C 37.4306 %
278 06-06-2020 00:00:00 12.76111 C 34.0347 %
279 07-06-2020 00:00:00 13.84514 C 31.7083 %
280 08-06-2020 00:00:00 15.57014 C 31.2986 %
281 09-06-2020 00:00:00 14.49861 C 37.8333 %
282 10-06-2020 00:00:00 15.8625 C 35.7431 %
283 11-06-2020 00:00:00 15.99028 C 36.5486 %
284 12-06-2020 00:00:00 20.73403 C 31.5139 %
285 13-06-2020 00:00:00 21.73403 C 27.8889 %
286 14-06-2020 00:00:00 19.10208 C 32.2222 %
287 15-06-2020 00:00:00 19.14306 C 31.8264 %
288 16-06-2020 00:00:00 18.22986 C 36.8750 %
289 17-06-2020 00:00:00 18.10486 C 36.5347 %
290 18-06-2020 00:00:00 19.72569 C 31.4722 %
291 19-06-2020 00:00:00 17.11181 C 35.9028 %
292 20-06-2020 00:00:00 17.44514 C 34.6319 %
293 21-06-2020 00:00:00 20.65208 C 31.4097 %
294 22-06-2020 00:00:00 20.03958 C 29.0347 %
295 23-06-2020 00:00:00 21.27708 C 29.8472 %
296 24-06-2020 00:00:00 22.32569 C 27.2222 %
297 25-06-2020 00:00:00 22.52222 C 26.3264 %
298 26-06-2020 00:00:00 23.33542 C 29.4306 %
299 27-06-2020 00:00:00 23.59236 C 27.9236 %
300 28-06-2020 00:00:00 20.15625 C 29.1181 %
Sensor: Nr:Datum:Temp:Feuchte:
Aussen-T/F 301 29-06-2020 00:00:00 18.91667 C 29.3750 %
302 30-06-2020 00:00:00 17.63611 C 29.2500 %
303 01-07-2020 00:00:00 22.10764 C 27.2500 %
304 02-07-2020 00:00:00 19.35903 C 32.8611 %
305 03-07-2020 00:00:00 18.4375 C 30.9306 %
306 04-07-2020 00:00:00 19.56528 C 27.8056 %
307 05-07-2020 00:00:00 23.42222 C 26.5069 %
308 06-07-2020 00:00:00 16.97292 C 27.8264 %
309 07-07-2020 00:00:00 16.98611 C 30.0903 %
310 08-07-2020 00:00:00 15.99444 C 36.0486 %
311 09-07-2020 00:00:00 22.42361 C 30.2153 %
312 10-07-2020 00:00:00 18.77222 C 32.6042 %
313 11-07-2020 00:00:00 17.44167 C 29.9514 %
314 12-07-2020 00:00:00 18.36944 C 29.9792 %
315 13-07-2020 00:00:00 20.63333 C 27.9931 %
316 14-07-2020 00:00:00 19.57917 C 28.7153 %
317 15-07-2020 00:00:00 18.56806 C 29.6389 %
318 16-07-2020 00:00:00 16.03611 C 38.0625 %
319 17-07-2020 00:00:00 19.64375 C 32.7222 %
320 18-07-2020 00:00:00 20.24406 C 31.3636 %
321 19-07-2020 00:00:00 23.3625 C 27.6597 %
322 20-07-2020 00:00:00 20.29931 C 28.6111 %
323 21-07-2020 00:00:00 18.99375 C 27.2083 %
324 22-07-2020 00:00:00 18.52222 C 28.8542 %
325 23-07-2020 00:00:00 20.38472 C 26.9306 %
Sensor: Nr:Datum:Temp:Feuchte:
Aussen-T/F 326 24-07-2020 00:00:00 21.93889 C 24.3333 %
327 25-07-2020 00:00:00 21.73681 C 27.9583 %
328 26-07-2020 00:00:00 21.61944 C 29.2361 %
329 27-07-2020 00:00:00 22.74306 C 28.1181 %
330 28-07-2020 00:00:00 23.63681 C 22.2569 %
331 29-07-2020 00:00:00 20.21875 C 27.2083 %
332 30-07-2020 00:00:00 21.74306 C 27.3958 %
333 31-07-2020 00:00:00 25.38125 C 25.3056 %
334 01-08-2020 00:00:00 22.83611 C 31.0000 %
335 02-08-2020 00:00:00 22.3625 C 29.5694 %
336 03-08-2020 00:00:00 18.8125 C 30.2222 %
337 04-08-2020 00:00:00 20.01944 C 27.5139 %
338 05-08-2020 00:00:00 20.54444 C 28.1875 %
339 06-08-2020 00:00:00 22.82014 C 26.7500 %
340 07-08-2020 00:00:00 24.83819 C 26.9306 %
341 08-08-2020 00:00:00 27.23056 C 25.4722 %
342 09-08-2020 00:00:00 24.89722 C 26.9583 %
343 10-08-2020 00:00:00 26.58125 C 27.6319 %
344 11-08-2020 00:00:00 26.57986 C 27.6944 %
345 12-08-2020 00:00:00 24.53194 C 33.3958 %
346 13-08-2020 00:00:00 24.15556 C 32.0694 %
347 14-08-2020 00:00:00 24.22639 C 29.9306 %
348 15-08-2020 00:00:00 22.52847 C 33.3611 %
349 16-08-2020 00:00:00 23.01608 C 33.3287 %
350 17-08-2020 00:00:00 22.00069 C 32.0694 %
Sensor: Nr:Datum:Temp:Feuchte:
Aussen-T/F 351 18-08-2020 00:00:00 19.64722 C 33.6319 %
352 19-08-2020 00:00:00 19.99514 C 33.0764 %
353 20-08-2020 00:00:00 24.92847 C 30.1597 %
354 21-08-2020 00:00:00 25.70417 C 25.9653 %
355 22-08-2020 00:00:00 23.12222 C 26.7500 %
356 23-08-2020 00:00:00 19.60972 C 28.1042 %
357 24-08-2020 00:00:00 18.62986 C 28.9931 %
358 25-08-2020 00:00:00 19.32986 C 29.6458 %
359 26-08-2020 00:00:00 21.03819 C 23.8750 %
360 27-08-2020 00:00:00 19.17014 C 29.1458 %
361 28-08-2020 00:00:00 18.33125 C 32.6875 %
362 29-08-2020 00:00:00 16.67083 C 33.7222 %
363 30-08-2020 00:00:00 16.39375 C 34.2917 %
364 31-08-2020 00:00:00 15.79722 C 38.0278 %
365 01-09-2020 00:00:00 15.44097 C 36.7014 %
366 02-09-2020 00:00:00 16.35833 C 34.1458 %
Sensor: Nr:Datum:Temp:Feuchte:
G-T/H 1 03-09-2019 00:00:00 16.5475 C 53.5583 %
2 04-09-2019 00:00:00 18.68667 C 56.9667 %
3 05-09-2019 00:00:00 18.34667 C 60.0000 %
4 06-09-2019 00:00:00 17.44333 C 56.1750 %
5 07-09-2019 00:00:00 17.36583 C 60.4417 %
6 08-09-2019 00:00:00 16.54309 C 65.9350 %
7 09-09-2019 00:00:00 16.06067 C 66.7333 %
8 10-09-2019 00:00:00 15.23333 C 63.6597 %
9 11-09-2019 00:00:00 15.74097 C 61.0833 %
10 12-09-2019 00:00:00 17.93194 C 67.6319 %
11 13-09-2019 00:00:00 18.68472 C 70.9653 %
12 14-09-2019 00:00:00 18.01181 C 65.5903 %
13 15-09-2019 00:00:00 17.60347 C 61.9722 %
14 16-09-2019 00:00:00 17.78264 C 60.7361 %
15 17-09-2019 00:00:00 17.67431 C 62.7083 %
16 18-09-2019 00:00:00 15.39444 C 57.2778 %
17 19-09-2019 00:00:00 14.12361 C 57.3125 %
18 20-09-2019 00:00:00 13.22639 C 59.3056 %
19 21-09-2019 00:00:00 15.10833 C 52.5278 %
20 22-09-2019 00:00:00 15.13194 C 59.2083 %
21 23-09-2019 00:00:00 16.27153 C 64.4028 %
22 24-09-2019 00:00:00 16.11528 C 66.2778 %
23 25-09-2019 00:00:00 16.20556 C 67.8681 %
24 26-09-2019 00:00:00 16.33542 C 69.4097 %
25 27-09-2019 00:00:00 16.76458 C 69.3611 %
Sensor: Nr:Datum:Temp:Feuchte:
G-T/H 26 28-09-2019 00:00:00 16.47083 C 68.9792 %
27 29-09-2019 00:00:00 16.41458 C 69.6528 %
28 30-09-2019 00:00:00 16.64236 C 66.7917 %
29 01-10-2019 00:00:00 16.54167 C 68.3542 %
30 02-10-2019 00:00:00 16.15694 C 67.3056 %
31 03-10-2019 00:00:00 14.67222 C 66.7361 %
32 04-10-2019 00:00:00 14.15556 C 70.1319 %
33 05-10-2019 00:00:00 14.31875 C 71.1667 %
34 06-10-2019 00:00:00 13.69306 C 70.7847 %
35 07-10-2019 00:00:00 13.58056 C 72.7153 %
36 08-10-2019 00:00:00 14.14097 C 74.1597 %
37 09-10-2019 00:00:00 14.23472 C 74.0486 %
38 10-10-2019 00:00:00 14.00139 C 74.0278 %
39 11-10-2019 00:00:00 13.98819 C 74.3333 %
40 12-10-2019 00:00:00 14.71181 C 71.7639 %
41 13-10-2019 00:00:00 15.13472 C 74.9097 %
42 14-10-2019 00:00:00 16.34722 C 74.3958 %
43 15-10-2019 00:00:00 15.98125 C 73.6597 %
44 16-10-2019 00:00:00 15.42708 C 73.2986 %
45 17-10-2019 00:00:00 15.28056 C 74.7292 %
46 18-10-2019 00:00:00 15.18681 C 74.6042 %
47 19-10-2019 00:00:00 14.72222 C 74.1944 %
48 20-10-2019 00:00:00 14.40278 C 81.1597 %
49 21-10-2019 00:00:00 14.60625 C 80.9028 %
50 22-10-2019 00:00:00 14.62153 C 77.5000 %
Sensor: Nr:Datum:Temp:Feuchte:
G-T/H 51 23-10-2019 00:00:00 14.00764 C 76.3542 %
52 24-10-2019 00:00:00 14.52986 C 78.0139 %
53 25-10-2019 00:00:00 15.10694 C 74.8681 %
54 26-10-2019 00:00:00 14.99028 C 74.2153 %
55 27-10-2019 00:00:00 14.43933 C 74.9333 %
56 28-10-2019 00:00:00 12.81389 C 71.1806 %
57 29-10-2019 00:00:00 12.35556 C 71.6389 %
58 30-10-2019 00:00:00 10.98611 C 65.8194 %
59 31-10-2019 00:00:00 9.49097 C 64.1736 %
60 01-11-2019 00:00:00 9.67014 C 69.2569 %
61 02-11-2019 00:00:00 12.01181 C 74.2222 %
62 03-11-2019 00:00:00 12.91806 C 75.4861 %
63 04-11-2019 00:00:00 12.97569 C 75.6250 %
64 05-11-2019 00:00:00 12.58194 C 75.9444 %
65 06-11-2019 00:00:00 12.33194 C 75.6528 %
66 07-11-2019 00:00:00 12.18403 C 75.3403 %
67 08-11-2019 00:00:00 11.13611 C 70.1181 %
68 09-11-2019 00:00:00 11.02014 C 69.0972 %
69 10-11-2019 00:00:00 9.95556 C 68.3056 %
70 11-11-2019 00:00:00 9.96458 C 71.2708 %
71 12-11-2019 00:00:00 10.11458 C 72.0972 %
72 13-11-2019 00:00:00 10.0125 C 72.4097 %
73 14-11-2019 00:00:00 9.73403 C 68.3958 %
74 15-11-2019 00:00:00 9.68819 C 69.4028 %
75 16-11-2019 00:00:00 9.6125 C 68.7083 %
Sensor: Nr:Datum:Temp:Feuchte:
G-T/H 76 17-11-2019 00:00:00 9.03819 C 69.9306 %
77 18-11-2019 00:00:00 9.47361 C 72.2500 %
78 19-11-2019 00:00:00 9.40903 C 72.0833 %
79 20-11-2019 00:00:00 8.93333 C 71.1181 %
80 21-11-2019 00:00:00 8.40559 C 70.8182 %
81 22-11-2019 00:00:00 8.70556 C 72.6736 %
82 23-11-2019 00:00:00 9.32569 C 73.0972 %
83 24-11-2019 00:00:00 9.08333 C 72.0764 %
84 25-11-2019 00:00:00 9.04375 C 73.5069 %
85 26-11-2019 00:00:00 9.85139 C 74.9375 %
86 27-11-2019 00:00:00 10.87847 C 75.9236 %
87 28-11-2019 00:00:00 11.51597 C 75.5069 %
88 29-11-2019 00:00:00 11.25208 C 72.3542 %
89 30-11-2019 00:00:00 9.66736 C 68.9097 %
90 01-12-2019 00:00:00 8.81806 C 70.1806 %
91 02-12-2019 00:00:00 8.35278 C 70.5417 %
92 03-12-2019 00:00:00 8.74514 C 73.3472 %
93 04-12-2019 00:00:00 8.79375 C 71.8403 %
94 05-12-2019 00:00:00 7.92014 C 69.1458 %
95 06-12-2019 00:00:00 7.57292 C 70.7014 %
96 07-12-2019 00:00:00 8.97014 C 74.4514 %
97 08-12-2019 00:00:00 10.25694 C 75.1667 %
98 09-12-2019 00:00:00 10.48403 C 74.1111 %
99 10-12-2019 00:00:00 9.34028 C 71.5903 %
100 11-12-2019 00:00:00 8.75694 C 73.1250 %
Sensor: Nr:Datum:Temp:Feuchte:
G-T/H 101 12-12-2019 00:00:00 8.81042 C 73.2500 %
102 13-12-2019 00:00:00 8.51944 C 72.1458 %
103 14-12-2019 00:00:00 8.92153 C 73.0764 %
104 15-12-2019 00:00:00 9.56736 C 74.6667 %
105 16-12-2019 00:00:00 9.90486 C 75.1389 %
106 17-12-2019 00:00:00 10.43333 C 75.4583 %
107 18-12-2019 00:00:00 10.925 C 75.4861 %
108 19-12-2019 00:00:00 9.76667 C 73.6667 %
109 20-12-2019 00:00:00 9.69375 C 75.0208 %
110 21-12-2019 00:00:00 10.06458 C 74.5833 %
111 22-12-2019 00:00:00 10.1375 C 75.1528 %
112 23-12-2019 00:00:00 10.30417 C 75.3681 %
113 24-12-2019 00:00:00 10.12639 C 74.9375 %
114 25-12-2019 00:00:00 10.24444 C 75.9653 %
115 26-12-2019 00:00:00 9.92708 C 75.2569 %
116 27-12-2019 00:00:00 9.69444 C 75.5833 %
117 28-12-2019 00:00:00 8.37639 C 70.3194 %
118 29-12-2019 00:00:00 7.21528 C 69.6875 %
119 30-12-2019 00:00:00 7.16944 C 69.0486 %
120 31-12-2019 00:00:00 6.93194 C 69.9722 %
121 01-01-2020 00:00:00 7.23125 C 70.8403 %
122 02-01-2020 00:00:00 7.28958 C 70.5417 %
123 03-01-2020 00:00:00 8.41389 C 73.4792 %
124 04-01-2020 00:00:00 9.12431 C 73.5833 %
125 05-01-2020 00:00:00 9.42917 C 73.5694 %
Sensor: Nr:Datum:Temp:Feuchte:
G-T/H 126 06-01-2020 00:00:00 9.33958 C 72.1181 %
127 07-01-2020 00:00:00 8.74583 C 72.1111 %
128 08-01-2020 00:00:00 9.18611 C 74.0347 %
129 09-01-2020 00:00:00 10.3875 C 76.5556 %
130 10-01-2020 00:00:00 11.02153 C 75.1389 %
131 11-01-2020 00:00:00 10.04097 C 73.2014 %
132 12-01-2020 00:00:00 9.14861 C 72.8958 %
133 13-01-2020 00:00:00 9.30833 C 74.5139 %
134 14-01-2020 00:00:00 9.78958 C 75.6597 %
135 15-01-2020 00:00:00 10.59028 C 75.5972 %
136 16-01-2020 00:00:00 10.82222 C 75.8264 %
137 17-01-2020 00:00:00 9.87847 C 74.9583 %
138 18-01-2020 00:00:00 9.38125 C 74.1597 %
139 19-01-2020 00:00:00 8.86667 C 74.2569 %
140 20-01-2020 00:00:00 8.75 C 73.1111 %
141 21-01-2020 00:00:00 7.77014 C 69.7847 %
142 22-01-2020 00:00:00 7.17083 C 69.5903 %
143 23-01-2020 00:00:00 7.63472 C 70.8611 %
144 24-01-2020 00:00:00 7.71319 C 70.9097 %
145 25-01-2020 00:00:00 7.96806 C 71.5139 %
146 26-01-2020 00:00:00 7.98611 C 72.6597 %
147 27-01-2020 00:00:00 8.21875 C 74.7500 %
148 28-01-2020 00:00:00 8.85833 C 75.1458 %
149 29-01-2020 00:00:00 8.44306 C 74.0000 %
150 30-01-2020 00:00:00 8.61389 C 74.8750 %
Sensor: Nr:Datum:Temp:Feuchte:
G-T/H 151 31-01-2020 00:00:00 10.32431 C 76.3958 %
152 01-02-2020 00:00:00 11.40556 C 76.3681 %
153 02-02-2020 00:00:00 11.15903 C 73.6736 %
154 03-02-2020 00:00:00 11.4875 C 75.0000 %
155 04-02-2020 00:00:00 10.54722 C 71.2847 %
156 05-02-2020 00:00:00 9.47153 C 71.9236 %
157 06-02-2020 00:00:00 8.34306 C 70.5208 %
158 07-02-2020 00:00:00 7.79097 C 69.9167 %
159 08-02-2020 00:00:00 7.33681 C 70.6528 %
160 09-02-2020 00:00:00 8.3 C 73.5694 %
161 10-02-2020 00:00:00 9.82708 C 73.9167 %
162 11-02-2020 00:00:00 9.18194 C 72.2431 %
163 12-02-2020 00:00:00 8.72083 C 72.8750 %
164 13-02-2020 00:00:00 8.20208 C 72.5208 %
165 14-02-2020 00:00:00 8.84653 C 74.7500 %
166 15-02-2020 00:00:00 8.93958 C 73.5903 %
167 16-02-2020 00:00:00 11.3125 C 68.1111 %
168 17-02-2020 00:00:00 11.77708 C 69.2778 %
169 18-02-2020 00:00:00 10.43056 C 67.4028 %
170 19-02-2020 00:00:00 9.94514 C 69.4583 %
171 20-02-2020 00:00:00 9.73472 C 71.6875 %
172 21-02-2020 00:00:00 9.56875 C 71.4931 %
173 22-02-2020 00:00:00 9.25625 C 72.0625 %
174 23-02-2020 00:00:00 10.38403 C 73.7708 %
175 24-02-2020 00:00:00 10.40903 C 71.9792 %
Sensor: Nr:Datum:Temp:Feuchte:
G-T/H 176 25-02-2020 00:00:00 10.88819 C 73.0278 %
177 26-02-2020 00:00:00 10.02917 C 68.9306 %
178 27-02-2020 00:00:00 9.17986 C 71.0208 %
179 28-02-2020 00:00:00 8.31042 C 73.7708 %
180 29-02-2020 00:00:00 9.28125 C 75.1597 %
181 01-03-2020 00:00:00 9.80486 C 74.3403 %
182 02-03-2020 00:00:00 9.67847 C 73.5833 %
183 03-03-2020 00:00:00 9.53681 C 73.3194 %
184 04-03-2020 00:00:00 8.95833 C 73.5139 %
185 05-03-2020 00:00:00 9.15833 C 73.9861 %
186 06-03-2020 00:00:00 9.48958 C 74.9514 %
187 07-03-2020 00:00:00 9.38611 C 74.0556 %
188 08-03-2020 00:00:00 9.99583 C 74.7292 %
189 09-03-2020 00:00:00 10.54861 C 73.8819 %
190 10-03-2020 00:00:00 10.28056 C 73.3819 %
191 11-03-2020 00:00:00 11.72083 C 75.8889 %
192 12-03-2020 00:00:00 12.29653 C 71.3333 %
193 13-03-2020 00:00:00 11.08333 C 68.2014 %
194 14-03-2020 00:00:00 10.32361 C 70.1250 %
195 15-03-2020 00:00:00 10.87153 C 65.1667 %
196 16-03-2020 00:00:00 10.71667 C 66.3819 %
197 17-03-2020 00:00:00 11.47153 C 70.7292 %
198 18-03-2020 00:00:00 11.42569 C 70.3472 %
199 19-03-2020 00:00:00 12.36736 C 67.4583 %
200 20-03-2020 00:00:00 12.53217 C 67.5944 %
Sensor: Nr:Datum:Temp:Feuchte:
G-T/H 201 21-03-2020 00:00:00 11.55903 C 63.9097 %
202 22-03-2020 00:00:00 9.66111 C 61.2292 %
203 23-03-2020 00:00:00 8.67431 C 62.8819 %
204 24-03-2020 00:00:00 8.04028 C 63.8611 %
205 25-03-2020 00:00:00 7.80833 C 63.4722 %
206 26-03-2020 00:00:00 8.04028 C 64.0208 %
207 27-03-2020 00:00:00 9.19722 C 61.4583 %
208 28-03-2020 00:00:00 10.48264 C 59.6944 %
209 29-03-2020 00:00:00 10.14855 C 60.5362 %
210 30-03-2020 00:00:00 8.62708 C 59.5417 %
211 31-03-2020 00:00:00 8.58472 C 62.8194 %
212 01-04-2020 00:00:00 8.20764 C 62.6181 %
213 02-04-2020 00:00:00 8.18194 C 64.4097 %
214 03-04-2020 00:00:00 9.17708 C 61.3125 %
215 04-04-2020 00:00:00 7.05486 C 55.4306 %
216 05-04-2020 00:00:00 9.21944 C 61.8056 %
217 06-04-2020 00:00:00 10.2125 C 63.7569 %
218 07-04-2020 00:00:00 13.11319 C 59.7083 %
219 08-04-2020 00:00:00 13.17153 C 61.2847 %
220 09-04-2020 00:00:00 13.65556 C 60.0069 %
221 10-04-2020 00:00:00 13.73681 C 60.7847 %
222 11-04-2020 00:00:00 13.3125 C 61.3611 %
223 12-04-2020 00:00:00 13.45 C 63.2500 %
224 13-04-2020 00:00:00 13.15556 C 59.7986 %
225 14-04-2020 00:00:00 11.44375 C 58.7847 %
Sensor: Nr:Datum:Temp:Feuchte:
G-T/H 226 15-04-2020 00:00:00 11.16875 C 56.8333 %
227 16-04-2020 00:00:00 11.42917 C 52.3542 %
228 17-04-2020 00:00:00 14.90625 C 55.3958 %
229 18-04-2020 00:00:00 14.63333 C 62.5347 %
230 19-04-2020 00:00:00 14.45833 C 64.6250 %
231 20-04-2020 00:00:00 13.53681 C 59.6042 %
232 21-04-2020 00:00:00 13.28819 C 58.7986 %
233 22-04-2020 00:00:00 13.43958 C 59.4167 %
234 23-04-2020 00:00:00 13.68125 C 59.6181 %
235 24-04-2020 00:00:00 14.95139 C 52.1875 %
236 25-04-2020 00:00:00 14.65694 C 48.8681 %
237 26-04-2020 00:00:00 11.22569 C 54.7014 %
238 27-04-2020 00:00:00 13.14028 C 57.4375 %
239 28-04-2020 00:00:00 13.66528 C 62.0139 %
240 29-04-2020 00:00:00 13.85625 C 64.5486 %
241 30-04-2020 00:00:00 14.0875 C 65.0556 %
242 01-05-2020 00:00:00 13.42361 C 65.1111 %
243 02-05-2020 00:00:00 12.90972 C 65.8542 %
244 03-05-2020 00:00:00 12.50278 C 65.6389 %
245 04-05-2020 00:00:00 13.3096 C 66.6560 %
246 16-08-2020 00:00:00 28.83774 C 49.1132 %
247 17-08-2020 00:00:00 22.89861 C 61.1597 %
248 18-08-2020 00:00:00 21.78472 C 62.2500 %
249 19-08-2020 00:00:00 20.76042 C 62.8056 %
250 20-08-2020 00:00:00 21.42778 C 64.2153 %
Sensor: Nr:Datum:Temp:Feuchte:
G-T/H 251 21-08-2020 00:00:00 23.78681 C 60.8611 %
252 22-08-2020 00:00:00 23.54028 C 51.5833 %
253 23-08-2020 00:00:00 22.34236 C 54.2083 %
254 24-08-2020 00:00:00 21.13958 C 53.8264 %
255 25-08-2020 00:00:00 20.35139 C 56.7569 %
256 26-08-2020 00:00:00 20.64931 C 57.0625 %
257 27-08-2020 00:00:00 20.16944 C 57.9792 %
258 28-08-2020 00:00:00 19.75903 C 60.7222 %
259 29-08-2020 00:00:00 18.92847 C 61.1806 %
260 30-08-2020 00:00:00 18.35694 C 63.0694 %
261 31-08-2020 00:00:00 18.39792 C 64.6944 %
262 01-09-2020 00:00:00 17.98125 C 66.3125 %
263 02-09-2020 00:00:00 18.01667 C 60.1667 %

Maximal/Minimal-Werte vom 03.09.2019 - 02.09.2020

Sensor Min Max Avg
Temp
(Aussen-T/F)
-5 °C
29-12-2019  07:23:17
44.3 °C
08-08-2020  16:51:17
11.74 °C
Feuchte
(Aussen-T/F)
20 %
03-09-2019  10:57:17
64 %
08-09-2019  03:09:18
31.47 %
Temp
(G-T/H)
4.2 °C
04-04-2020  07:31:18
28.9 °C
16-08-2020  15:23:36
12.02 °C
Feuchte
(G-T/H)
33 %
21-09-2019  16:35:17
83 %
20-10-2019  15:57:17
68.78 %

Die Daten stammen von einer Davis Vantage Pro 2 Wetter-Station und werden unter Linux mit der Software wview2wettercgi und aufbereitet. Alle Angaben erfolgen ohne Gewähr für ihre Vollständigkeit oder Richtigkeit.
Kontakt: Rainer Krienke krienke@uni-koblenz.de . Meine Webseiten an der Uni Koblenz oder privat.
Version: $Revision: 0.78 $